When you browse on this site, cookies collect data to enhance your experience and personalize the content and advertising you see.
Visit our Privacy Policy to learn more. By continuing to use the site, you agree to this use of cookies and data.
  • In Hungary
  • List of Countries
  • For 7 days
  • Water Temperature
  • Weather Map
  • News
  • Weather Widgets
  • user-avatar
    Login

    Hourly Weather Kaprun

    Today, 5 June, Friday

    Time Temperature Precipitation Wind Pressure Humidity
    00:00 +3°C° 2.5 mm 2 mps 585 mmHg 97%
    01:00 +2°C° 2.5 mm 2 mps 585 mmHg 98%
    02:00 +2°C° 1.9 mm 2 mps 584 mmHg 98%
    03:00 +1°C° 1.9 mm 2 mps 584 mmHg 98%
    04:00 -1°C° 1.9 mm 2 mps 584 mmHg 97%
    05:00 +2°C° 0.6 mm 1 mps 584 mmHg 97%
    06:00 +2°C° 0.6 mm 1 mps 585 mmHg 97%
    07:00 +3°C° 0.6 mm 1 mps 585 mmHg 97%
    08:00 +3°C° 0.9 mm 1 mps 586 mmHg 97%
    09:00 +3°C° 0.9 mm 1 mps 586 mmHg 97%
    10:00 +3°C° 0.9 mm 1 mps 586 mmHg 98%
    11:00 +4°C° 0.3 mm 1 mps 586 mmHg 95%
    12:00 +5°C° 0.3 mm 1 mps 587 mmHg 93%
    13:00 +5°C° 0.3 mm 1 mps 587 mmHg 90%
    14:00 +5°C° 0.1 mm 0 mps 587 mmHg 86%
    15:00 +6°C° 0.1 mm 0 mps 588 mmHg 82%
    16:00 +7°C° 0.1 mm 0 mps 588 mmHg 78%
    17:00 +6°C° 0 mm 0 mps 588 mmHg 82%
    18:00 +6°C° 0 mm 0 mps 588 mmHg 86%
    19:00 +6°C° 0 mm 1 mps 588 mmHg 90%
    20:00 +5°C° 0 mm 1 mps 588 mmHg 91%
    21:00 +4°C° 0 mm 1 mps 588 mmHg 93%
    22:00 +3°C° 0 mm 1 mps 588 mmHg 94%
    23:00 +2°C° 0 mm 1 mps 588 mmHg 94%

    Tomorrow, 6 June, Saturday

    Time Temperature Precipitation Wind Pressure Humidity
    00:00 +2°C° 0 mm 1 mps 589 mmHg 94%
    01:00 +2°C° 0 mm 1 mps 589 mmHg 93%
    02:00 +1°C° 0 mm 2 mps 589 mmHg 93%
    03:00 +1°C° 0 mm 2 mps 589 mmHg 93%
    04:00 +1°C° 0 mm 2 mps 589 mmHg 93%
    05:00 +3°C° 0 mm 2 mps 590 mmHg 90%
    06:00 +4°C° 0 mm 2 mps 590 mmHg 87%
    07:00 +6°C° 0 mm 2 mps 591 mmHg 84%
    08:00 +7°C° 0 mm 2 mps 592 mmHg 78%
    09:00 +9°C° 0 mm 2 mps 593 mmHg 73%
    10:00 +12°C° 0 mm 2 mps 593 mmHg 67%
    11:00 +12°C° 0.2 mm 2 mps 593 mmHg 69%
    12:00 +12°C° 0.2 mm 2 mps 593 mmHg 70%
    13:00 +12°C° 0.2 mm 2 mps 593 mmHg 72%
    14:00 +10°C° 0.7 mm 2 mps 593 mmHg 78%
    15:00 +10°C° 0.7 mm 2 mps 593 mmHg 84%
    16:00 +9°C° 0.7 mm 2 mps 592 mmHg 90%
    17:00 +8°C° 0.8 mm 2 mps 592 mmHg 93%
    18:00 +8°C° 0.8 mm 1 mps 592 mmHg 95%
    19:00 +8°C° 0.8 mm 1 mps 591 mmHg 98%
    20:00 +7°C° 0.6 mm 1 mps 592 mmHg 98%
    21:00 +7°C° 0.6 mm 1 mps 592 mmHg 99%
    22:00 +6°C° 0.6 mm 1 mps 592 mmHg 99%
    23:00 +6°C° 0.6 mm 1 mps 592 mmHg 99%

    Day after tomorrow, 7 June, Sunday

    Time Temperature Precipitation Wind Pressure Humidity
    00:00 +6°C° 0.6 mm 1 mps 592 mmHg 99%
    01:00 +6°C° 0.6 mm 1 mps 591 mmHg 99%
    02:00 +6°C° 0.1 mm 1 mps 591 mmHg 99%
    03:00 +6°C° 0.1 mm 1 mps 591 mmHg 99%
    04:00 +5°C° 0.1 mm 1 mps 591 mmHg 99%
    05:00 +6°C° 0.1 mm 1 mps 591 mmHg 98%
    06:00 +6°C° 0.1 mm 1 mps 592 mmHg 98%
    07:00 +6°C° 0.1 mm 1 mps 592 mmHg 98%
    08:00 +6°C° 0.7 mm 1 mps 592 mmHg 98%
    09:00 +6°C° 0.7 mm 1 mps 592 mmHg 98%
    10:00 +5°C° 0.7 mm 2 mps 593 mmHg 98%
    11:00 +6°C° 0.9 mm 1 mps 593 mmHg 98%
    12:00 +5°C° 0.9 mm 1 mps 593 mmHg 97%
    13:00 +5°C° 0.9 mm 1 mps 593 mmHg 97%
    14:00 +5°C° 0.8 mm 1 mps 592 mmHg 97%
    15:00 +5°C° 0.8 mm 1 mps 592 mmHg 97%
    16:00 +5°C° 0.8 mm 1 mps 592 mmHg 97%
    17:00 +5°C° 1.2 mm 1 mps 592 mmHg 98%
    18:00 +5°C° 1.2 mm 1 mps 592 mmHg 98%
    19:00 +5°C° 1.2 mm 1 mps 592 mmHg 99%
    20:00 +5°C° 1.4 mm 1 mps 592 mmHg 99%
    21:00 +4°C° 1.4 mm 1 mps 593 mmHg 99%
    22:00 +3°C° 1.4 mm 0 mps 593 mmHg 99%
    23:00 +3°C° 0.8 mm 0 mps 592 mmHg 99%

    8 June, Monday

    Time Temperature Precipitation Wind Pressure Humidity
    00:00 +4°C° 0.8 mm 1 mps 592 mmHg 99%
    01:00 +4°C° 0.8 mm 1 mps 592 mmHg 99%
    02:00 +4°C° 0.2 mm 1 mps 592 mmHg 99%
    03:00 +4°C° 0.2 mm 1 mps 592 mmHg 99%
    04:00 +3°C° 0.2 mm 0 mps 592 mmHg 99%
    05:00 +3°C° 0.5 mm 0 mps 592 mmHg 99%
    06:00 +5°C° 0.5 mm 1 mps 592 mmHg 99%
    07:00 +5°C° 0.5 mm 1 mps 592 mmHg 98%
    08:00 +5°C° 0.3 mm 1 mps 592 mmHg 98%
    09:00 +5°C° 0.3 mm 1 mps 592 mmHg 98%
    10:00 +6°C° 0.3 mm 1 mps 593 mmHg 98%
    11:00 +6°C° 0.5 mm 1 mps 593 mmHg 97%
    12:00 +6°C° 0.5 mm 1 mps 593 mmHg 97%
    13:00 +6°C° 0.5 mm 1 mps 593 mmHg 97%
    14:00 +6°C° 0.2 mm 1 mps 593 mmHg 96%
    15:00 +6°C° 0.2 mm 1 mps 593 mmHg 96%
    16:00 +7°C° 0.2 mm 1 mps 593 mmHg 96%
    17:00 +6°C° 1.2 mm 1 mps 593 mmHg 97%
    18:00 +6°C° 1.2 mm 1 mps 593 mmHg 98%
    19:00 +5°C° 1.2 mm 1 mps 593 mmHg 99%
    20:00 +5°C° 2.2 mm 1 mps 593 mmHg 99%
    21:00 +5°C° 2.2 mm 1 mps 593 mmHg 98%
    22:00 +4°C° 2.2 mm 1 mps 593 mmHg 98%
    23:00 +3°C° 1.4 mm 0 mps 593 mmHg 98%

    9 June, Tuesday

    Time Temperature Precipitation Wind Pressure Humidity
    00:00 +3°C° 1.4 mm 0 mps 593 mmHg 98%
    01:00 +3°C° 1.4 mm 0 mps 593 mmHg 98%
    02:00 +3°C° 1.5 mm 0 mps 593 mmHg 98%
    03:00 +3°C° 1.5 mm 0 mps 592 mmHg 98%
    04:00 +3°C° 1.5 mm 0 mps 592 mmHg 98%
    05:00 +3°C° 1 mm 0 mps 593 mmHg 98%
    06:00 +3°C° 1 mm 0 mps 593 mmHg 98%
    07:00 +4°C° 1 mm 0 mps 593 mmHg 97%
    08:00 +6°C° 0.2 mm 1 mps 594 mmHg 93%
    09:00 +7°C° 0.2 mm 1 mps 594 mmHg 89%
    10:00 +8°C° 0.2 mm 1 mps 595 mmHg 85%
    11:00 +9°C° 0.5 mm 1 mps 595 mmHg 85%
    12:00 +9°C° 0.5 mm 1 mps 595 mmHg 84%
    13:00 +10°C° 0.5 mm 1 mps 595 mmHg 83%
    14:00 +9°C° 1 mm 1 mps 595 mmHg 85%
    15:00 +9°C° 1 mm 1 mps 595 mmHg 87%
    16:00 +9°C° 1 mm 1 mps 595 mmHg 90%
    17:00 +8°C° 0.7 mm 1 mps 595 mmHg 92%
    18:00 +8°C° 0.7 mm 1 mps 595 mmHg 93%
    19:00 +7°C° 0.7 mm 1 mps 595 mmHg 95%
    20:00 +6°C° 0.3 mm 1 mps 595 mmHg 96%
    21:00 +4°C° 0.3 mm 0 mps 594 mmHg 97%
    22:00 +3°C° 0.3 mm 0 mps 594 mmHg 98%
    23:00 +3°C° 0.1 mm 0 mps 594 mmHg 98%

    10 June, Wednesday

    Time Temperature Precipitation Wind Pressure Humidity
    00:00 +3°C° 0.1 mm 0 mps 594 mmHg 98%
    01:00 +3°C° 0.1 mm 0 mps 594 mmHg 98%
    02:00 +3°C° 0.2 mm 0 mps 594 mmHg 98%
    03:00 +3°C° 0.2 mm 0 mps 594 mmHg 98%
    04:00 +2°C° 0.2 mm 0 mps 594 mmHg 98%
    05:00 +4°C° 0.2 mm 0 mps 595 mmHg 96%
    06:00 +5°C° 0.2 mm 0 mps 595 mmHg 93%
    07:00 +7°C° 0.2 mm 1 mps 596 mmHg 91%
    08:00 +8°C° 0.7 mm 1 mps 596 mmHg 89%
    09:00 +8°C° 0.7 mm 1 mps 597 mmHg 86%
    10:00 +9°C° 0.7 mm 1 mps 597 mmHg 84%
    11:00 +8°C° 0.9 mm 2 mps 597 mmHg 81%
    12:00 +9°C° 0.9 mm 2 mps 597 mmHg 77%
    13:00 +9°C° 0.9 mm 2 mps 598 mmHg 74%
    14:00 +9°C° 0.6 mm 2 mps 597 mmHg 76%
    15:00 +10°C° 0.6 mm 1 mps 597 mmHg 78%
    16:00 +10°C° 0.6 mm 1 mps 597 mmHg 80%
    17:00 +9°C° 0.5 mm 1 mps 597 mmHg 84%
    18:00 +8°C° 0.5 mm 1 mps 597 mmHg 88%
    19:00 +8°C° 0.5 mm 1 mps 597 mmHg 93%
    20:00 +7°C° 0.1 mm 1 mps 597 mmHg 94%
    21:00 +6°C° 0.1 mm 1 mps 597 mmHg 95%
    22:00 +5°C° 0.1 mm 1 mps 597 mmHg 97%
    23:00 +5°C° 0 mm 1 mps 597 mmHg 97%
    Show more